This is the latest recevied weather packets stored in our database for station/object OK2ZAW-19. If no packets are shown the sender has not sent any weather packets the latest 10 day(s).
| Time | Temp. | Humidity | Pressure | Rain* | Wind** | Luminosity | Snow |
|---|---|---|---|---|---|---|---|
| 1777538813 | 5.56° C | 47% | 1029.7 hPa | - | - | 337 W/m² | - |
| 1777538503 | 5.56° C | 49% | 1029.8 hPa | - | - | 337 W/m² | - |
| 1777538193 | 5.56° C | 48% | 1029.7 hPa | - | - | 337 W/m² | - |
| 1777537573 | 5° C | 48% | 1029.7 hPa | - | - | 337 W/m² | - |
| 1777537263 | 5° C | 49% | 1029.9 hPa | - | - | 337 W/m² | - |
| 1777536953 | 5° C | 50% | 1029.7 hPa | - | - | 337 W/m² | - |
| 1777536643 | 4.44° C | 53% | 1029.6 hPa | - | - | 337 W/m² | - |
| 1777535713 | 3.89° C | 53% | 1029.8 hPa | - | - | 338 W/m² | - |
| 1777535403 | 3.33° C | 54% | 1029.8 hPa | - | - | 337 W/m² | - |
| 1777535094 | 3.33° C | 56% | 1029.8 hPa | - | - | 337 W/m² | - |
| 1777534784 | 2.78° C | 56% | 1029.8 hPa | - | - | 337 W/m² | - |
| 1777534474 | 2.78° C | 57% | 1029.8 hPa | - | - | 336 W/m² | - |
| 1777533854 | 2.22° C | 55% | 1029.8 hPa | - | - | 337 W/m² | - |
| 1777533544 | 2.22° C | 58% | 1029.8 hPa | - | - | 337 W/m² | - |
| 1777533235 | 2.22° C | 57% | 1029.9 hPa | - | - | 337 W/m² | - |
| 1777532925 | 1.67° C | 58% | 1029.7 hPa | - | - | 337 W/m² | - |
| 1777532615 | 1.67° C | 59% | 1029.7 hPa | - | - | 337 W/m² | - |
| 1777531996 | 1.11° C | 60% | 1029.7 hPa | - | - | 337 W/m² | - |
| 1777531686 | 1.11° C | 61% | 1029.7 hPa | - | - | 337 W/m² | - |
| 1777531376 | 1.11° C | 61% | 1029.7 hPa | - | - | 337 W/m² | - |
| 1777531067 | 0.56° C | 63% | 1029.6 hPa | - | - | 337 W/m² | - |
| 1777530757 | 0.56° C | 64% | 1029.6 hPa | - | - | 337 W/m² | - |
| 1777530447 | 0.56° C | 63% | 1029.6 hPa | - | - | 337 W/m² | - |
| 1777529828 | 0° C | 65% | 1029.7 hPa | - | - | 337 W/m² | - |
| 1777529518 | -0.56° C | 65% | 1029.6 hPa | - | - | 338 W/m² | - |
* Rain since midnight (hover to see other rain measurements)
** Current wind speed in m/s (hover to see current wind gust speed)